* Astronomy

Members Login
Username 
 
Password 
    Remember Me  
Post Info TOPIC: Soyuz SL-4 rocket body re-entry


L

Posts: 131433
Date:
RE: Soyuz SL-4 rocket body re-entry
Permalink  
 


Update:
The SL-4 rocket body re-entered the Earths atmosphere on the 1st November, 2011 @ 07:29 GMT 1 minute.


Inclination: 51.63
Revolution Number: 29
Predicted Location: 5S, 34E



__________________


L

Posts: 131433
Date:
Permalink  
 

Update:
The SL-4 rocket body is predicted to re-enter the Earths atmosphere on the 1st November, 2011 @ 07:35 GMT 2 hours.

SL-4 RB
1 37858U 11062B   11303.96964411 +.03455193 +12095-4 +81161-3 0 00058
2 37858 051.6409 198.0731 0025571 085.6900 274.7425 16.27885019000081

Period: 88.65 minutes
Inclination: 51.63
Apogee: 227 km
Perigee: 189 km
Revolution Number: 30
Predicted Location: 0.9N, 38.2E



__________________


L

Posts: 131433
Date:
Permalink  
 

A SL-4 rocket body that was launched on the 30th October, 2011, from the Baikonur Cosmodrome, for the Progress M-13M/45P mission is predicted to re-enter the Earths atmosphere on the 1st November, 2011 @ 07:34 GMT 3 hours.

SL-4 RB
1 37858U 11062B   11303.96964411 +.03455193 +12095-4 +81161-3 0 00058
2 37858 051.6409 198.0731 0025571 085.6900 274.7425 16.27885019000081

Period: 88.65 minutes
Inclination: 51.63
Apogee: 227 km
Perigee: 189 km
Revolution Number: 29
Predicted Location: 2.9S, 35.5E



__________________
Page 1 of 1  sorted by
 
Quick Reply

Please log in to post quick replies.



Create your own FREE Forum
Report Abuse
Powered by ActiveBoard